MST,Max TemperatureF,Mean TemperatureF,Min TemperatureF,Max Dew PointF,MeanDew PointF,Min DewpointF,Max Humidity, Mean Humidity, Min Humidity, Max Sea Level PressureIn, Mean Sea Level PressureIn, Min Sea Level PressureIn, Max VisibilityMiles, Mean VisibilityMiles, Min VisibilityMiles, Max Wind SpeedMPH, Mean Wind SpeedMPH, Max Gust SpeedMPH,PrecipitationIn, CloudCover, Events, WindDirDegrees
2014-2-1,12,4,-4,1,-2,-9,85,73,57,30.15,30.09,30.00,10,9,3,18,12,22,0.00,6,,269
2014-2-2,15,2,-11,9,-1,-17,100,75,60,30.09,30.04,29.97,10,10,8,22,10,26,0.00,4,,236
2014-2-3,12,5,-2,9,-1,-13,92,72,55,30.37,30.21,30.07,10,10,2,16,6,,0.00,6,,8
2014-2-4,3,-2,-7,0,-7,-17,100,76,56,30.62,30.51,30.37,10,8,2,14,6,,0.00,3,,322
2014-2-5,0,-9,-18,-8,-14,-29,100,75,53,30.68,30.62,30.51,10,10,10,21,10,24,0.00,3,,284
2014-2-6,1,-8,-16,-9,-16,-26,100,73,51,30.51,30.28,30.02,10,10,10,20,11,25,0.00,0,,243
2014-2-7,10,-5,-20,0,-13,-29,100,67,44,30.02,29.91,29.85,10,10,10,13,7,,0.00,1,,196
2014-2-8,8,0,-9,3,-4,-18,100,75,56,30.33,30.11,29.90,10,10,5,16,6,20,0.00,3,,307
2014-2-9,5,-6,-16,0,-13,-29,100,78,37,30.36,30.31,30.26,10,10,10,9,4,,0.00,1,,264
2014-2-10,15,0,-14,7,-4,-22,100,79,57,30.25,30.15,29.94,10,10,5,13,4,,0.00,1,,188
2014-2-11,39,17,-5,28,12,-15,100,76,60,30.11,29.88,29.73,10,9,0,20,11,24,0.00,4,,274
2014-2-12,42,20,-2,30,15,-9,100,80,61,30.09,29.66,29.35,10,8,0,26,7,33,0.00,4,,234
2014-2-13,28,16,5,19,10,0,100,82,67,29.79,29.69,29.60,10,8,0,29,11,38,0.00,3,,41
2014-2-14,37,24,12,27,20,9,100,81,65,29.96,29.79,29.57,10,10,0,21,6,25,0.00,4,,212
2014-2-15,37,28,19,27,23,16,100,80,60,30.02,29.85,29.58,10,10,10,28,15,37,0.01,3,,338
2014-2-16,41,31,21,34,27,19,93,81,65,29.83,29.63,29.48,10,10,5,26,9,33,0.01,4,,189
2014-2-17,44,34,24,30,23,18,80,61,46,29.80,29.65,29.51,10,10,10,23,14,31,0.00,1,,242
2014-2-18,41,34,26,32,26,21,93,74,45,29.85,29.73,29.52,10,10,2,28,14,36,0.11,2,,259
2014-2-19,42,33,24,34,23,18,86,66,39,29.67,29.53,29.44,10,10,10,23,12,30,0.00,3,,236
2014-2-20,32,22,12,21,14,7,86,71,51,29.92,29.79,29.59,10,9,2,29,17,38,0.00,3,,279
2014-2-21,24,19,14,21,16,1,93,82,57,29.97,29.80,29.68,10,9,2,12,4,,0.00,7,,43
2014-2-22,19,14,10,10,6,3,85,70,54,30.26,30.11,29.98,10,10,5,17,9,23,0.00,8,,312
2014-2-23,12,5,-2,3,-1,-8,100,73,57,30.37,30.31,30.25,10,10,3,15,8,,0.00,2,,7
2014-2-24,6,-4,-13,-2,-9,-26,100,72,49,30.42,30.34,30.21,10,7,2,16,13,20,0.00,3,,328
2014-2-25,8,-3,-14,-2,-9,-26,100,72,45,30.51,30.40,30.21,10,10,10,17,7,17,0.00,0,,276
2014-2-26,26,10,-7,7,-1,-15,92,59,37,30.19,30.03,29.98,10,10,10,23,12,29,0.00,0,,284
2014-2-27,26,10,-5,16,2,-15,100,69,47,29.99,29.73,29.54,10,10,10,15,5,,0.00,1,,38
2014-2-28,23,7,-11,12,-7,-20,78,64,51,30.36,30.07,29.61,10,10,3,29,20,41,0.00,2,,332